User: anonymous   Login
Location: Unspecified
(0.0000°N, 0.0000°E)
Time: 16:12:07
(UTC+01:00)
Language:

Cosmos 1782 Rocket - Orbit

View from above orbital plane
View from above orbital plane
View from above satellite
View from above satellite

Ground track
Ground track

The orbit data is extracted from the following two-line orbital elements,

1 16987U 86074B   16040.55603022  .00000246  00000-0  27351-4 0  9994
2 16987  82.5140  52.6825 0019894  87.0722  29.7620 14.82860758585315
Epoch (UTC): 09 February 2016 13:20:41
Eccentricity: 0.0019894
inclination: 82.5140°
perigee height: 606 km
apogee height: 634 km
right ascension of ascending node: 52.6825°
argument of perigee: 87.0722°
revolutions per day: 14.82860758
mean anomaly at epoch: 29.7620°
orbit number at epoch: 58531

The dashed part of the orbit path shows where the satellite is in the earth's shadow,  

DLR